Flag for Germany Weather past 2 weeks in Greifswald, Mecklenburg-Western Pomerania, Germany

Now
41 °F

Partly sunny.


Feels Like: 37 °F
Forecast: 43 / 50 °F
Wind: 6 mph from West

Location: Greifswald

Current Time: Dec 21, 2014 at 11:05:47 AM

Latest Report: Dec 21, 2014 at 9:00 AM


Visibility: 15 mi

Pressure: 30.09 "Hg

Humidity: 84%

Dew point: 36 °F

Location of GreifswaldLocation

Historic Weather in Greifswald — Graph

°F

Greifswald temperature yesterday

Maximum temperature yesterday: 43 °F (at 11:00 PM)
Minimum temperature yesterday: 38 °F (at 3:00 PM)
Average temperature yesterday: 40 °F

Past Weeks' High & Low Weather Summary

 TemperatureHumidityPressure
High53 °F (Dec 19, 1:00 AM)100% (Dec 6, 8:00 PM)30.32 "Hg (Dec 6, 8:00 PM)
Low29 °F (Dec 7, 5:00 AM)73% (Dec 20, 9:00 PM)29.21 "Hg (Dec 12, 5:00 PM)
Average39 °F88%29.80 "Hg
* Reported Dec 6 9:00 AM — Dec 21 9:00 AM, Greifswald, Weather by CustomWeather, © 2014

Note: Actual official high and low records may vary slightly from our data, if they occured in-between our weather recording intervals... More about our weather records

Advertising

Greifswald weather history for previous 24 hours

 ConditionsComfort  
Time TempWeatherWind HumidityBarometerVisibility
9:00 AM
Dec 21
41 °FPartly sunny.6 mph84%30.09 "Hg15 mi
8:00 AM40 °FPassing clouds.6 mph84%30.06 "Hg12 mi
7:00 AM42 °FOvercast.7 mph79%30.04 "Hg19 mi
6:00 AM40 °FPassing clouds.7 mph80%30.01 "Hg19 mi
5:00 AM40 °FPassing clouds.8 mph80%30.00 "Hg19 mi
3:00 AM42 °FOvercast.8 mph76%29.94 "Hg25 mi
2:00 AM40 °FPassing clouds.8 mph80%29.90 "Hg25 mi
1:00 AM41 °FPassing clouds.8 mph77%29.86 "Hg25 mi
12:00 AM43 °FPassing clouds.9 mph73%29.82 "Hg16 mi
11:00 PM
Dec 20
43 °FOvercast.10 mph73%29.79 "Hg12 mi
9:00 PM42 °FOvercast.12 mph73%29.71 "Hg19 mi
8:00 PM42 °FOvercast.12 mph78%29.65 "Hg19 mi
7:00 PM40 °FPassing clouds.10 mph84%29.61 "Hg22 mi
6:00 PM39 °FSprinkles. Overcast.9 mph90%29.57 "Hg9 mi
5:00 PM39 °FOvercast.8 mph84%29.57 "Hg25 mi
4:00 PM39 °FOvercast.9 mph85%29.59 "Hg31 mi
3:00 PM38 °FScattered clouds.7 mph83%29.59 "Hg37 mi
2:00 PM40 °FOvercast.8 mph80%29.61 "Hg31 mi
1:00 PM40 °FOvercast.8 mph82%29.62 "Hg31 mi
12:00 PM40 °FPartly sunny.8 mph85%29.62 "Hg34 mi
11:00 AM39 °FOvercast.9 mph91%29.64 "Hg19 mi
Weather by CustomWeather, © 2014

See weather overviewHow to use our weather pages